Regional Weather Roundup
Issued by NWS

Home | Current Version | Previous Version | Text Only | Print | Product List | Glossary On
Versions: 1 2 3 4 5 6 7 8 9 10 11 12 13 14 15 16 17 18 19 20 21 22 23 24 25 26 27 28 29 30 31 32 33 34 35 36 37 38 39 40 41 42 43 44 45 46 47 48 49 50
000
ASUS44 KFWD 201310
RWRTX
NORTH TEXAS HOURLY WEATHER ROUNDUP
NATIONAL WEATHER SERVICE FORT WORTH TX
800 AM CDT SUN AUG 20 2017

NOTE: "FAIR" INDICATES FEW OR NO CLOUDS BELOW 12,000 FEET WITH NO
SIGNIFICANT WEATHER AND/OR OBSTRUCTIONS TO VISIBILITY.

TXZ118-119-201400-
DALLAS/FORT WORTH METROPLEX

CITY           SKY/WX    TMP DP  RH WIND       PRES   REMARKS
DFW AIRPORT    PTSUNNY   82  70  66 S8        29.98R
DALLAS LOVE    CLOUDY    83  69  62 S5        29.99R
FTW MEACHAM    SUNNY     79  71  76 S5        29.98R
DAL-EXECUTIVE  SUNNY     81  70  69 VRB3      29.98R
FTW-ALLIANCE   MOSUNNY   79  70  74 SW3       29.99R
FTW-NAS-JRB    PTSUNNY   78  69  73 S6        29.99R
FTW-SPINKS     SUNNY     79  70  73 S3        30.00R
ARLINGTON      SUNNY     79  72  79 SE6       29.99R
GRAND PRAIRIE  SUNNY     81  68  65 S5        30.01R
ADDISON        SUNNY     82  68  61 CALM      30.00R
MESQUITE       MOSUNNY   77  72  83 SE5       30.00R
LANCASTER      SUNNY     76  70  80 CALM      30.00R
$$

TXZ091>094-102>105-117-120-121-131>134-201400-
NORTH CENTRAL TEXAS

CITY           SKY/WX    TMP DP  RH WIND       PRES   REMARKS
SHRMAN/DENISON CLOUDY    80  72  78 S8        30.01R
GAINESVILLE    CLOUDY    76  71  83 SE5       30.01R
BOWIE          CLOUDY    76  71  83 CALM      30.00R
BRIDGEPORT     CLOUDY    76  70  82 CALM      30.00R
DECATUR        CLOUDY    79  68  69 SW8         N/A
DENTON         CLOUDY    77  72  84 S3        29.98R
MCKINNEY       CLOUDY    78  75  90 SE7       30.00R
BONHAM         SUNNY     79  73  83 S5        30.00R
GREENVILLE     MOSUNNY   81  73  78 CALM      30.01R
ROCKWALL       CLOUDY    79  72  79 S10       30.00S
TERRELL        SUNNY     79  72  79 S5        30.01R
WAXAHACHIE     CLOUDY    78  71  79 CALM      30.01R
CLEBURNE       SUNNY     77  72  83 S3        30.02R
GRANBURY       SUNNY     79  68  69 CALM      30.00S
$$

TXZ083>090-098>101-113>116-127>130-139>142-154-155-201400-
WESTERN NORTH TEXAS

CITY           SKY/WX    TMP DP  RH WIND       PRES   REMARKS
WICHITA FALLS  CLOUDY    77  70  79 S8        29.97R
WF-KICKAPOO    CLOUDY    78  71  78 SW3       30.00R
VERNON         CLOUDY    76  66  70 CALM      30.00R
ABILENE        SUNNY     74  67  78 S8        30.03R
ABILENE-DYESS  SUNNY     74  67  80 S10       30.01R
GRAHAM         CLOUDY    76  68  75 CALM      29.98R
BRECKENRIDGE   SUNNY     79  65  62 S7        30.00R
CISCO          SUNNY     73  66  78 S7        30.02S
EASTLAND       SUNNY     72  67  85 S5        30.02R
RANGER         SUNNY     72  67  82 S6        30.02R
MINERAL WELLS  SUNNY     73  69  87 SE5       29.98R
STEPHENVILLE   SUNNY     73  67  82 CALM      30.04R
COMANCHE       SUNNY     77  66  69 SW10G16   30.03R
COLEMAN        SUNNY     73  64  72 CALM      30.04R
$$

TXZ143>147-156>162-174-175-201400-
CENTRAL TEXAS

CITY           SKY/WX    TMP DP  RH WIND       PRES   REMARKS
WACO           SUNNY     79  70  74 S6        30.00R
WACO-TSTC      SUNNY     75  72  88 CALM      30.01R
WACO-MCGREGOR  SUNNY     79  69  71 S3        30.01R
HILLSBORO      SUNNY     78  70  75 SE5       30.01R
CORSICANA      SUNNY     80  72  76 S7        30.02R
MEXIA          SUNNY     76  71  83 S5        30.01R
HEARNE         PTSUNNY   77  76  98 CALM      30.03R
CAMERON        SUNNY     78  74  86 S5        30.01R
TEMPLE         SUNNY     77  70  79 S6        30.01R
KILLEEN        SUNNY     77  68  75 S5        30.01R
KILLEEN-SKYLRK SUNNY     77  69  76 SW5       30.02R
FORT HOOD      SUNNY     77  68  74 SW3       29.98R
HAMILTON       SUNNY     75  67  76 SW6       30.03R
$$

TXZ095>097-106>112-122>126-135>138-148>153-164>167-201400-
EAST TEXAS

CITY           SKY/WX    TMP DP  RH WIND       PRES   REMARKS
PARIS          SUNNY     79  75  87 S6        30.02R
SULPHUR SPRNGS SUNNY     80  73  79 S5        30.03R
MOUNT PLEASANT SUNNY    N/A N/A N/A SE3       30.03R
GILMER         SUNNY     78  74  89 CALM      30.03R
MINEOLA        SUNNY     79  75  89 E7        30.02R
TYLER          SUNNY     78  76  93 S3        30.02R
LONGVIEW       SUNNY     80  76  87 S3        30.01R
MARSHALL         N/A     75  73  93 CALM      30.04S
ATHENS         SUNNY     75  75 100 S3        30.01R
PALESTINE      SUNNY     77  75  93 CALM      30.04R
JACKSONVILLE   SUNNY     78  75  90 S3        30.06R
HENDERSON      SUNNY     77  74  93 CALM      30.04R
CENTER         SUNNY     81  80  96 CALM      30.04R HX  91
NACOGDOCHES    SUNNY     75  73  94 CALM      30.03R
LUFKIN         SUNNY     77  75  93 CALM      30.02R
$$

SUPPLEMENTAL OBSERVATIONS (NWS FORT WORTH AREA)

CITY           SKY/WX    TMP DP  RH WIND       PRES   REMARKS
CADDO GRASSLND   N/A     79  73  83 S3          N/A
PAT MAYSE LAKE   N/A     79  77  94 SE3         N/A
GREENVILLE       N/A     81  72  74 S5          N/A
CEDAR HILL       N/A     81  68  65 S6          N/A
LBJ GRASSLAND    N/A     77  68  73 S5          N/A
POSSUM KINGDOM   N/A     79  66  65 S6          N/A
GRANBURY         N/A     81  68  65 SE3         N/A
MCGREGOR         N/A     79  68  69 SW3         N/A
TEMPLE           N/A     79  70  73 SE2         N/A
$$

SUPPLEMENTAL OBSERVATIONS (NWS NORMAN AREA)

CITY           SKY/WX    TMP DP  RH WIND       PRES   REMARKS
GOODLETT         N/A     75  68  79 SE8       29.98S
ODELL            N/A     74  69  84 SE7       30.00R
CROWELL          N/A     74  71  91 S6        30.00S
KNOX CITY        N/A     74  67  80 SW6       30.01R
SEYMOUR          N/A     77  67  71 W3        30.01R
MILLERS CREEK    N/A     75  68  78 S8          N/A
$$

SUPPLEMENTAL OBSERVATIONS (NWS SAN ANGELO AREA)

CITY           SKY/WX    TMP DP  RH WIND       PRES   REMARKS
WEINERT          N/A     73  67  81 W5        30.01R
HASKELL          N/A     74  65  72 SW7       30.01R
THROCKMORTON     N/A     75  67  77 S6        30.01R
STAMFORD         N/A     76  66  71 S9        30.01R
CLYDE            N/A     75  66  73 S8        30.06R
HAMBY            N/A     75  64  69 S8          N/A
IVIE RESERVOIR   N/A     77  66  69 SE5         N/A
COLORADO BEND    N/A     77  66  69 S5          N/A
$$

SUPPLEMENTAL OBSERVATIONS (NWS SHREVEPORT AREA)

CITY           SKY/WX    TMP DP  RH WIND       PRES   REMARKS
CLARKSVILLE      N/A     81  75  83 S5          N/A
TEXARKANA        N/A     79  77  94 CALM        N/A
LINDEN           N/A     79  73  83 SE1         N/A
GILMER           N/A     81  77  89 CALM        N/A
HENDERSON        N/A     79  77  94 SE2         N/A
LUFKIN           N/A     79  77  94 MISG        N/A
N SABINE NF      N/A     75  73  94 MISG        N/A
S SABINE NF      N/A     81  77  89 CALM        N/A
$$

SUPPLEMENTAL OBSERVATIONS ARE A COLLECTION OF AUTOMATED INSTRUMENTS
THAT ARE MAINTAINED BY A VARIETY OF FEDERAL AND STATE AGENCIES.
CERTAIN ELEMENTS...SUCH AS HUMIDITY VALUES AND SUSTAINED WIND
SPEEDS...MAY BE APPROXIMATED.





USA.gov is the U.S. government's official web portal to all federal, state and local government web resources and services.